Regional Weather Roundup
Issued by NWS Sioux Falls, SD

Home | Current Version | Previous Version | Text Only | Print | Product List | Glossary Off
Versions: 1 2 3 4 5 6 7 8 9 10 11 12 13 14 15 16 17 18 19 20 21 22 23 24 25 26 27 28 29 30 31 32 33 34 35 36 37 38 39 40 41 42 43 44 45 46 47 48 49 50

354
ASUS43 KFSD 300110
RWRFSD

WEATHER ROUNDUP FOR SE SOUTH DAKOTA/SW MINNESOTA/NW IOWA
NATIONAL WEATHER SERVICE SIOUX FALLS SD
800 PM CDT FRI APR 29 2016

NOTE: "FAIR" INDICATES FEW OR NO CLOUDS BELOW 12,000 FEET WITH NO
SIGNIFICANT WEATHER AND OR OBSTRUCTIONS TO VISIBILITY.


SDZ038>040-050-052>070-300200-
SOUTHEAST SOUTH DAKOTA

CITY           SKY/WX    TMP DP  RH WIND       PRES   REMARKS
BROOKINGS      CLOUDY    49  39  68 E9        30.06F
CHAMBERLAIN    CLOUDY    48  43  82 E6        30.04S
HURON          CLOUDY    49  40  71 MISG      30.06F
MADISON        MOCLDY    46  46 100 NE12      30.05S
MITCHELL       CLOUDY    50  40  68 E12       30.05S
SIOUX FALLS    CLOUDY    48  38  68 E10       30.03F
WINNER         CLOUDY    45  38  76 E12       30.03S
YANKTON        CLOUDY    46  37  71 E15       30.02S
$$

MNZ071-072-080-081-089-090-097-098-300200-
SOUTHWEST MINNESOTA

CITY           SKY/WX    TMP DP  RH WIND       PRES   REMARKS
FAIRMONT       CLOUDY    48  37  66 E10       30.07F
JACKSON        CLOUDY    50  39  66 E10       30.07F
LUVERNE        CLOUDY    46  37  71 E7        30.05S
MARSHALL       CLOUDY    50  41  71 E7        30.09F
MONTEVIDEO     PTCLDY    52  41  66 SE7       30.11S
PIPESTONE      CLOUDY    48  39  71 E8        30.05S
REDWOOD FALLS  CLOUDY    54  37  52 NE3       30.09F
TRACY          CLOUDY    50  43  77 NE8       30.08F
WINDOM         CLOUDY    48  41  76 CALM      30.07F
WORTHINGTON    CLOUDY    47  41  80 E9        30.06F
$$

IAZ001>003-012>014-020>022-031-032-NEZ013-014-SDZ071-300200-
NORTHWEST IOWA

CITY           SKY/WX    TMP DP  RH WIND       PRES   REMARKS
CHEROKEE       CLOUDY    45  42  87 E10G17    30.03F
DENISON        CLOUDY    46  41  81 E12G20    29.98S
ESTHERVILLE    CLOUDY    47  40  76 E14       30.06F
LE MARS        CLOUDY    48  41  76 NE9       30.03F
ORANGE CITY    CLOUDY    46  41  81 E9G16     30.02F
SHELDON        CLOUDY    48  43  81 E12       30.03S
SIOUX CITY     CLOUDY    48  39  71 E14       30.02R
SPENCER        CLOUDY    47  39  74 E12       30.06S
STORM LAKE     CLOUDY    45  39  81 E17       30.03S
$$

ABBREVIATIONS USED IN REMARKS
   TC - TEMPERATURE IN CELSIUS
  WCI - WIND CHILL INDEX
   HX - HEAT INDEX
  VSB - VISIBILITY





USA.gov is the U.S. government's official web portal to all federal, state and local government web resources and services.